Home > Weather > Colorado Springs > Past weeks

Flag for USA Past Weather in Colorado Springs, Colorado, USA — Yesterday and Last 2 Weeks

Now
70 °F

Passing clouds.


Feels Like: 77 °F
Forecast: 64 / 87 °F
Wind: 10 mph from North

Location: City Of Colorado Springs Municipal Airport

Current Time: Jul 23, 2016 at 5:14:49 AM

Latest Report: Jul 23, 2016 at 4:54 AM


Visibility: 10 mi

Pressure: 29.88 "Hg (24.16 "Hg at 1831m altitude)

Humidity: 41%

Dew Point: 45 °F

Location of Colorado SpringsLocation

Past Weather in Colorado Springs — Graph

°F

Colorado Springs Temperature Yesterday

Maximum temperature yesterday: 93 °F (at 1:54 PM)
Minimum temperature yesterday: 64 °F (at 5:54 AM)
Average temperature yesterday: 78 °F

High & Low Weather Summary for the Past Weeks

 TemperatureHumidityPressure
High96 °F (Jul 16, 4:54 PM)93% (Jul 8, 4:54 AM)30.34 "Hg (Jul 8, 4:54 AM)
Low56 °F (Jul 9, 5:54 AM)9% (Jul 16, 2:54 PM)29.50 "Hg (Jul 10, 11:54 PM)
Average75 °F42%29.90 "Hg
* Reported Jul 8 2:54 AM — Jul 23 2:54 AM, Colorado Springs, Weather by CustomWeather, © 2016

Note: Actual official high and low records may vary slightly from our data, if they occured in-between our weather recording intervals... More about our weather records

Advertising

Colorado Springs Weather History for the Previous 24 Hours

Scroll right to see more
 ConditionsComfort  
Time TempWeatherWind HumidityBarometerVisibility
2:54 AM
Sat, Jul 23
70 °FPassing clouds.12 mph42%29.85 "Hg10 mi
1:54 AM75 °FPassing clouds.14 mph36%29.85 "Hg10 mi
12:54 AM72 °FPassing clouds.10 mph43%29.86 "Hg10 mi
11:54 PM
Fri, Jul 22
74 °FPassing clouds.9 mph40%29.87 "Hg10 mi
10:54 PM75 °FPassing clouds.8 mph45%29.89 "Hg10 mi
9:54 PM73 °FPassing clouds.7 mph51%29.92 "Hg10 mi
8:54 PM75 °FBroken clouds.5 mph52%29.90 "Hg10 mi
7:54 PM80 °FBroken clouds.No wind39%29.92 "Hg10 mi
6:54 PM82 °FBroken clouds.8 mph35%29.92 "Hg10 mi
5:54 PM85 °FPartly sunny.14 mph34%29.92 "Hg10 mi
4:54 PM78 °FThunderstorms. Partly sunny.12 mph48%29.98 "Hg10 mi
3:54 PM91 °FPartly sunny.8 mph19%29.88 "Hg10 mi
2:54 PM93 °FThunderstorms. Scattered clouds.8 mph18%29.90 "Hg10 mi
1:54 PM93 °FScattered clouds.No wind18%29.93 "Hg10 mi
12:54 PM91 °FScattered clouds.3 mph20%29.97 "Hg10 mi
11:54 AM89 °FScattered clouds.3 mph22%29.99 "Hg10 mi
10:54 AM85 °FPartly sunny.7 mph27%30.02 "Hg10 mi
9:54 AM81 °FPartly sunny.6 mph34%30.03 "Hg10 mi
8:54 AM78 °FBroken clouds.No wind45%30.03 "Hg10 mi
7:54 AM76 °FBroken clouds.3 mph45%30.03 "Hg10 mi
6:54 AM68 °FBroken clouds.5 mph55%30.04 "Hg10 mi
5:54 AM64 °FPassing clouds.6 mph61%30.05 "Hg10 mi
Weather by CustomWeather, © 2016

See weather overviewHow to use our weather pages